Weather in Plunge

Lithuania     55°54′37″N   21°50′47″E
temp.,
°C
wind,
m/s
gust,
m/s
humid.,
%
clouds,
%
prec.,
mm/h
press.,
hPa
HPBL,
m
6 august, fri
fri600:00+13e498681 0.0 1012178
03:00+12e4118996 0.0 1012279
06:00+11ene51487100 0.0 1010426
09:00+14ne81565100 0.0 1009977
12:00+17ene91355100 0.0 10071114
15:00+19ene81252100 0.0 10051300
18:00+15ene61385100 0.7 1004911
21:00+14ne71587100 0.9 1003835
7 august, sat
sat700:00+14ne71391100 0.2 1002814
03:00+14ne61196100 1.4 1001597
06:00+14ne51097100 3.3 1000504
09:00+14nne3697100 3.7 1001391
12:00+15n2397100 0.4 1002243
15:00+15w2495100 0.7 1003370
18:00+17wnw358977 0.1 1004504
21:00+16w3796100 0.3 1006278
8 august, sun
sun800:00+14w269787 0.1 1008134
03:00+13sw23945 0.1 100947
06:00+12ssw239637 0.0 101054
09:00+17sse3484100 0.0 1010221
12:00+22se4553100 0.0 1009773
15:00+24se5652100 0.0 10091304
18:00+17e4996100 5.7 1008421
21:00+18s279653 6.4 1008258
9 august, mon
mon900:00+17w6129782 0.1 1010594
03:00+15wsw39975 0.1 1012300
06:00+14ssw379795 0.0 1013139
09:00+17ssw488690 0.2 1014517
12:00+21sw795955 0.2 10151322
15:00+19wsw7106833 1.9 10171295
18:00+18wsw598793 1.2 1018927
21:00+15sw36941 1.8 1018150
10 august, tue
tue1000:00+13ssw3495100 0.0 101970
03:00+13s3694100 0.0 1019101
06:00+14s3691100 0.0 1018105
09:00+16sse368685 1.6 1018226
12:00+21ssw465513 0.6 10171136
15:00+23ssw564564 0.6 10161582
18:00+22sw5549100 0.0 10151283
21:00+16s2290100 1.4 101555